Time,TemperatureF,DewpointF,PressureIn,WindDirection,WindDirectionDegrees,WindSpeedMPH,WindSpeedGustMPH,Humidity,HourlyPrecipIn,Conditions,Clouds,dailyrainin,SoftwareType,DateUTC
2013-01-28 00:11:00,36.3,33.6,30.01,NNE,22,0.0,-999.0,90,0.00,,,0.16,open2300 v1.10,2013-01-28 05:11:00,
2013-01-28 00:21:00,38.1,35.7,30.00,NNE,22,12.3,-999.0,91,0.00,,,0.16,open2300 v1.10,2013-01-28 05:21:00,
2013-01-28 00:31:00,39.9,37.5,30.00,NNE,22,7.2,-999.0,91,0.00,,,0.16,open2300 v1.10,2013-01-28 05:31:00,
2013-01-28 00:41:00,40.3,37.8,30.00,NNE,22,1.6,-999.0,91,0.00,,,0.16,open2300 v1.10,2013-01-28 05:41:00,
2013-01-28 00:51:00,40.3,37.8,29.99,NNE,22,1.6,-999.0,91,0.00,,,0.16,open2300 v1.10,2013-01-28 05:51:00,
2013-01-28 01:01:00,40.3,37.8,29.99,NNE,22,2.7,-999.0,91,0.00,,,0.16,open2300 v1.10,2013-01-28 06:01:00,
2013-01-28 01:11:00,40.6,38.2,29.99,NNE,22,0.0,-999.0,91,0.00,,,0.16,open2300 v1.10,2013-01-28 06:11:00,
2013-01-28 01:21:00,40.8,38.4,29.98,NNE,22,4.2,-999.0,91,0.00,,,0.16,open2300 v1.10,2013-01-28 06:21:00,
2013-01-28 01:31:00,41.7,39.6,29.99,North,0,0.0,-999.0,92,0.00,,,0.16,open2300 v1.10,2013-01-28 06:31:00,
2013-01-28 01:41:00,43.0,40.8,29.99,North,0,0.0,-999.0,92,0.00,,,0.16,open2300 v1.10,2013-01-28 06:41:00,
2013-01-28 01:51:00,43.5,41.4,29.99,NNE,22,0.0,-999.0,92,0.00,,,0.16,open2300 v1.10,2013-01-28 06:51:00,
2013-01-28 02:01:00,43.5,41.4,29.98,NNE,22,1.6,-999.0,92,0.00,,,0.16,open2300 v1.10,2013-01-28 07:01:00,
2013-01-28 02:11:00,43.5,41.4,29.98,North,0,5.1,-999.0,92,0.00,,,0.16,open2300 v1.10,2013-01-28 07:11:00,
2013-01-28 02:21:00,44.1,41.9,29.98,NNE,22,7.8,-999.0,92,0.00,,,0.16,open2300 v1.10,2013-01-28 07:21:00,
2013-01-28 02:31:00,44.8,42.6,29.97,North,0,15.7,-999.0,92,0.00,,,0.16,open2300 v1.10,2013-01-28 07:31:00,
2013-01-28 02:41:00,45.3,43.2,29.97,North,0,4.9,-999.0,92,0.00,,,0.16,open2300 v1.10,2013-01-28 07:41:00,
2013-01-28 02:51:00,46.2,44.1,29.97,North,0,10.1,-999.0,92,0.00,,,0.16,open2300 v1.10,2013-01-28 07:51:00,
2013-01-28 03:01:00,46.8,44.3,29.97,North,0,11.0,-999.0,91,0.00,,,0.16,open2300 v1.10,2013-01-28 08:01:00,
2013-01-28 03:11:00,46.9,44.5,29.97,North,0,5.6,-999.0,91,0.00,,,0.16,open2300 v1.10,2013-01-28 08:11:00,
2013-01-28 03:21:00,47.1,44.4,29.97,North,0,11.0,-999.0,90,0.00,,,0.16,open2300 v1.10,2013-01-28 08:21:00,
2013-01-28 03:31:00,46.9,43.9,29.96,NNE,22,9.6,-999.0,89,0.00,,,0.16,open2300 v1.10,2013-01-28 08:31:00,
2013-01-28 03:41:00,46.9,43.9,29.95,NNE,22,14.5,-999.0,89,0.00,,,0.16,open2300 v1.10,2013-01-28 08:41:00,
2013-01-28 03:51:00,46.9,43.9,29.95,North,0,8.3,-999.0,89,0.00,,,0.16,open2300 v1.10,2013-01-28 08:51:00,
2013-01-28 04:01:00,46.8,43.7,29.95,NNE,22,2.2,-999.0,89,0.00,,,0.16,open2300 v1.10,2013-01-28 09:01:00,
2013-01-28 04:11:00,46.6,43.6,29.95,NNE,22,8.5,-999.0,89,0.00,,,0.16,open2300 v1.10,2013-01-28 09:11:00,
2013-01-28 04:21:00,46.6,43.9,29.95,NNE,22,0.7,-999.0,90,0.00,,,0.16,open2300 v1.10,2013-01-28 09:21:00,
2013-01-28 04:31:00,46.8,44.1,29.95,North,0,6.3,-999.0,90,0.00,,,0.16,open2300 v1.10,2013-01-28 09:31:00,
2013-01-28 04:41:00,46.8,44.1,29.95,North,0,5.4,-999.0,90,0.00,,,0.16,open2300 v1.10,2013-01-28 09:41:00,
2013-01-28 04:51:00,46.9,44.5,29.94,North,0,3.4,-999.0,91,0.00,,,0.16,open2300 v1.10,2013-01-28 09:51:00,
2013-01-28 05:01:00,46.9,44.5,29.94,NNE,22,6.0,-999.0,91,0.00,,,0.16,open2300 v1.10,2013-01-28 10:01:00,
2013-01-28 05:11:00,46.9,44.5,29.94,North,0,0.0,-999.0,91,0.00,,,0.16,open2300 v1.10,2013-01-28 10:11:00,
2013-01-28 05:21:00,46.9,44.5,29.94,NNE,22,9.2,-999.0,91,0.00,,,0.16,open2300 v1.10,2013-01-28 10:21:00,
2013-01-28 05:31:00,46.9,44.5,29.94,North,0,8.9,-999.0,91,0.00,,,0.16,open2300 v1.10,2013-01-28 10:31:00,
2013-01-28 05:41:00,46.9,44.5,29.94,WNW,292,0.0,-999.0,91,0.00,,,0.16,open2300 v1.10,2013-01-28 10:41:00,
2013-01-28 05:51:00,47.1,44.7,29.94,NNE,22,7.4,-999.0,91,0.00,,,0.16,open2300 v1.10,2013-01-28 10:51:00,
2013-01-28 06:01:00,47.1,44.7,29.93,NNE,22,6.7,-999.0,91,0.00,,,0.16,open2300 v1.10,2013-01-28 11:01:00,
2013-01-28 06:11:00,47.1,44.7,29.93,WNW,292,0.0,-999.0,91,0.00,,,0.16,open2300 v1.10,2013-01-28 11:11:00,
2013-01-28 06:21:00,47.1,44.7,29.93,NNE,22,13.2,-999.0,91,0.00,,,0.16,open2300 v1.10,2013-01-28 11:21:00,
2013-01-28 06:31:00,47.3,44.9,29.92,North,0,8.5,-999.0,91,0.00,,,0.16,open2300 v1.10,2013-01-28 11:31:00,
2013-01-28 06:41:00,47.5,45.0,29.93,NNE,22,6.3,-999.0,91,0.00,,,0.16,open2300 v1.10,2013-01-28 11:41:00,
2013-01-28 06:51:00,47.5,45.0,29.93,North,0,2.0,-999.0,91,0.00,,,0.16,open2300 v1.10,2013-01-28 11:51:00,
2013-01-28 07:01:00,47.5,44.8,29.92,NNE,22,7.4,-999.0,90,0.00,,,0.16,open2300 v1.10,2013-01-28 12:01:00,
2013-01-28 07:11:00,47.7,45.0,29.92,NNE,22,3.8,-999.0,90,0.00,,,0.16,open2300 v1.10,2013-01-28 12:11:00,
2013-01-28 07:21:00,47.7,45.0,29.92,North,0,7.8,-999.0,90,0.00,,,0.16,open2300 v1.10,2013-01-28 12:21:00,
2013-01-28 07:31:00,47.8,45.1,29.92,NNE,22,5.6,-999.0,90,0.00,,,0.16,open2300 v1.10,2013-01-28 12:31:00,
2013-01-28 07:41:00,47.8,45.1,29.92,North,0,10.1,-999.0,90,0.00,,,0.16,open2300 v1.10,2013-01-28 12:41:00,
2013-01-28 07:51:00,48.0,45.3,29.92,NNE,22,10.5,-999.0,90,0.00,,,0.16,open2300 v1.10,2013-01-28 12:51:00,
2013-01-28 08:01:00,48.0,45.3,29.92,North,0,10.5,-999.0,90,0.00,,,0.16,open2300 v1.10,2013-01-28 13:01:00,
2013-01-28 08:11:00,48.2,45.5,29.92,WNW,292,7.6,-999.0,90,0.00,,,0.16,open2300 v1.10,2013-01-28 13:11:00,
2013-01-28 08:21:00,48.4,45.7,29.93,NNE,22,7.4,-999.0,90,0.00,,,0.16,open2300 v1.10,2013-01-28 13:21:00,
2013-01-28 08:31:00,48.6,45.8,29.93,North,0,11.0,-999.0,90,0.00,,,0.16,open2300 v1.10,2013-01-28 13:31:00,
2013-01-28 08:41:00,48.7,46.0,29.93,NNE,22,8.3,-999.0,90,0.00,,,0.16,open2300 v1.10,2013-01-28 13:41:00,
2013-01-28 08:51:00,48.7,46.0,29.93,North,0,5.1,-999.0,90,0.00,,,0.16,open2300 v1.10,2013-01-28 13:51:00,
2013-01-28 09:01:00,49.1,46.3,29.93,North,0,7.6,-999.0,90,0.00,,,0.16,open2300 v1.10,2013-01-28 14:01:00,
2013-01-28 09:11:00,49.1,46.3,29.94,North,0,8.7,-999.0,90,0.00,,,0.16,open2300 v1.10,2013-01-28 14:11:00,
2013-01-28 09:21:00,49.1,46.3,29.94,North,0,4.9,-999.0,90,0.00,,,0.16,open2300 v1.10,2013-01-28 14:21:00,
2013-01-28 09:31:00,49.3,46.5,29.94,North,0,2.0,-999.0,90,0.00,,,0.16,open2300 v1.10,2013-01-28 14:31:00,
2013-01-28 09:41:00,49.6,46.8,29.94,North,0,8.5,-999.0,90,0.00,,,0.16,open2300 v1.10,2013-01-28 14:41:00,
2013-01-28 09:51:00,49.6,46.8,29.94,North,0,2.5,-999.0,90,0.00,,,0.16,open2300 v1.10,2013-01-28 14:51:00,
2013-01-28 10:01:00,49.8,47.0,29.94,NNE,22,12.1,-999.0,90,0.00,,,0.16,open2300 v1.10,2013-01-28 15:01:00,
2013-01-28 10:11:00,50.0,47.1,29.94,NNE,22,0.0,-999.0,90,0.00,,,0.16,open2300 v1.10,2013-01-28 15:11:00,
2013-01-28 10:21:00,50.2,47.3,29.94,NNE,22,14.8,-999.0,90,0.00,,,0.16,open2300 v1.10,2013-01-28 15:21:00,
2013-01-28 10:31:00,50.2,47.3,29.95,North,0,6.0,-999.0,90,0.00,,,0.16,open2300 v1.10,2013-01-28 15:31:00,
2013-01-28 10:41:00,50.4,47.5,29.95,NNE,22,3.6,-999.0,90,0.00,,,0.16,open2300 v1.10,2013-01-28 15:41:00,
2013-01-28 10:51:00,50.5,47.7,29.95,NNE,22,12.5,-999.0,90,0.00,,,0.16,open2300 v1.10,2013-01-28 15:51:00,
2013-01-28 11:01:00,50.7,47.8,29.95,North,0,0.0,-999.0,90,0.00,,,0.16,open2300 v1.10,2013-01-28 16:01:00,
2013-01-28 11:11:00,50.7,47.8,29.96,North,0,5.6,-999.0,90,0.00,,,0.16,open2300 v1.10,2013-01-28 16:11:00,
2013-01-28 11:21:00,50.7,47.8,29.96,NNE,22,13.6,-999.0,90,0.00,,,0.16,open2300 v1.10,2013-01-28 16:21:00,
2013-01-28 11:31:00,50.7,47.8,29.96,North,0,0.0,-999.0,90,0.00,,,0.16,open2300 v1.10,2013-01-28 16:31:00,
2013-01-28 11:41:00,50.7,47.8,29.97,NNE,22,7.4,-999.0,90,0.00,,,0.16,open2300 v1.10,2013-01-28 16:41:00,
2013-01-28 11:51:00,50.7,47.8,29.97,North,0,0.0,-999.0,90,0.00,,,0.16,open2300 v1.10,2013-01-28 16:51:00,
2013-01-28 12:01:00,50.7,47.8,29.97,North,0,6.7,-999.0,90,0.00,,,0.16,open2300 v1.10,2013-01-28 17:01:00,
2013-01-28 12:11:00,50.7,48.1,29.96,North,0,15.4,-999.0,91,0.00,,,0.16,open2300 v1.10,2013-01-28 17:11:00,
2013-01-28 12:21:00,50.7,48.1,29.96,North,0,0.0,-999.0,91,0.00,,,0.16,open2300 v1.10,2013-01-28 17:21:00,
2013-01-28 12:31:00,50.7,48.1,29.96,North,0,13.6,-999.0,91,0.00,,,0.16,open2300 v1.10,2013-01-28 17:31:00,
2013-01-28 12:41:00,50.7,48.1,29.96,NNE,22,3.1,-999.0,91,0.00,,,0.16,open2300 v1.10,2013-01-28 17:41:00,
2013-01-28 12:51:00,50.9,48.3,29.96,NNE,22,0.0,-999.0,91,0.00,,,0.16,open2300 v1.10,2013-01-28 17:51:00,
2013-01-28 13:01:00,51.1,48.5,29.95,NNE,22,7.2,-999.0,91,0.00,,,0.16,open2300 v1.10,2013-01-28 18:01:00,
2013-01-28 13:11:00,51.1,48.5,29.94,North,0,0.0,-999.0,91,0.00,,,0.16,open2300 v1.10,2013-01-28 18:11:00,
2013-01-28 13:21:00,51.1,48.5,29.94,North,0,0.0,-999.0,91,0.00,,,0.16,open2300 v1.10,2013-01-28 18:21:00,
2013-01-28 13:31:00,51.1,48.5,29.94,NNE,22,0.0,-999.0,91,0.00,,,0.16,open2300 v1.10,2013-01-28 18:31:00,
2013-01-28 13:41:00,51.1,48.5,29.94,NNE,22,2.0,-999.0,91,0.00,,,0.16,open2300 v1.10,2013-01-28 18:41:00,
2013-01-28 13:51:00,51.1,48.5,29.94,NNE,22,5.1,-999.0,91,0.00,,,0.16,open2300 v1.10,2013-01-28 18:51:00,
2013-01-28 14:01:00,51.3,48.7,29.93,NNE,22,8.5,-999.0,91,0.00,,,0.16,open2300 v1.10,2013-01-28 19:01:00,
2013-01-28 14:11:00,51.3,48.7,29.93,NNE,22,6.3,-999.0,91,0.00,,,0.16,open2300 v1.10,2013-01-28 19:11:00,
2013-01-28 14:21:00,51.4,48.8,29.93,North,0,2.7,-999.0,91,0.00,,,0.16,open2300 v1.10,2013-01-28 19:21:00,
2013-01-28 14:31:00,51.4,49.1,29.93,NNE,22,2.7,-999.0,92,0.00,,,0.16,open2300 v1.10,2013-01-28 19:31:00,
2013-01-28 14:41:00,51.4,49.1,29.93,NNE,22,5.6,-999.0,92,0.00,,,0.16,open2300 v1.10,2013-01-28 19:41:00,
2013-01-28 14:51:00,51.3,49.0,29.93,NNE,22,1.8,-999.0,92,0.00,,,0.16,open2300 v1.10,2013-01-28 19:51:00,
2013-01-28 15:01:00,51.3,49.0,29.93,NNE,22,0.0,-999.0,92,0.00,,,0.16,open2300 v1.10,2013-01-28 20:01:00,
2013-01-28 15:11:00,51.4,49.1,29.93,NNE,22,0.7,-999.0,92,0.00,,,0.16,open2300 v1.10,2013-01-28 20:11:00,
2013-01-28 15:21:00,51.3,49.0,29.93,NNE,22,4.5,-999.0,92,0.00,,,0.16,open2300 v1.10,2013-01-28 20:21:00,
2013-01-28 15:31:00,51.4,49.1,29.94,NNE,22,0.0,-999.0,92,0.00,,,0.16,open2300 v1.10,2013-01-28 20:31:00,
2013-01-28 15:41:00,51.4,49.1,29.94,North,0,0.0,-999.0,92,0.00,,,0.16,open2300 v1.10,2013-01-28 20:41:00,
2013-01-28 15:51:00,51.6,49.3,29.94,NNE,22,1.8,-999.0,92,0.00,,,0.16,open2300 v1.10,2013-01-28 20:51:00,
2013-01-28 16:01:00,51.6,49.3,29.94,NNE,22,6.0,-999.0,92,0.00,,,0.12,open2300 v1.10,2013-01-28 21:01:00,
2013-01-28 16:11:00,51.6,49.3,29.94,NNE,22,0.0,-999.0,92,0.00,,,0.12,open2300 v1.10,2013-01-28 21:11:00,
2013-01-28 16:21:00,51.6,49.3,29.94,North,0,0.0,-999.0,92,0.00,,,0.12,open2300 v1.10,2013-01-28 21:21:00,
2013-01-28 16:31:00,51.8,49.5,29.94,North,0,3.1,-999.0,92,0.00,,,0.12,open2300 v1.10,2013-01-28 21:31:00,
2013-01-28 16:41:00,52.0,49.7,29.94,NNE,22,0.0,-999.0,92,0.00,,,0.12,open2300 v1.10,2013-01-28 21:41:00,
2013-01-28 16:51:00,52.0,49.7,29.94,NNE,22,0.0,-999.0,92,0.00,,,0.12,open2300 v1.10,2013-01-28 21:51:00,
2013-01-28 17:01:00,51.8,49.5,29.94,NNE,22,0.7,-999.0,92,0.00,,,0.10,open2300 v1.10,2013-01-28 22:01:00,
2013-01-28 17:11:00,52.0,49.7,29.94,NNE,22,0.0,-999.0,92,0.00,,,0.10,open2300 v1.10,2013-01-28 22:11:00,
2013-01-28 17:21:00,51.8,49.5,29.94,NNE,22,0.0,-999.0,92,0.00,,,0.10,open2300 v1.10,2013-01-28 22:21:00,
2013-01-28 17:31:00,51.6,49.3,29.95,NNE,22,0.0,-999.0,92,0.00,,,0.10,open2300 v1.10,2013-01-28 22:31:00,
2013-01-28 17:41:00,51.6,49.3,29.95,NNE,22,0.0,-999.0,92,0.00,,,0.10,open2300 v1.10,2013-01-28 22:41:00,
2013-01-28 17:51:00,51.8,49.8,29.95,NNE,22,0.0,-999.0,93,0.00,,,0.10,open2300 v1.10,2013-01-28 22:51:00,
2013-01-28 18:01:00,51.6,49.6,29.95,NNE,22,2.7,-999.0,93,0.00,,,0.00,open2300 v1.10,2013-01-28 23:01:00,
2013-01-28 18:11:00,51.6,49.6,29.96,NNE,22,0.0,-999.0,93,0.00,,,0.00,open2300 v1.10,2013-01-28 23:11:00,
2013-01-28 18:21:00,51.4,49.4,29.96,NNE,22,1.3,-999.0,93,0.00,,,0.00,open2300 v1.10,2013-01-28 23:21:00,
2013-01-28 18:31:00,51.4,49.4,29.96,NNE,22,0.0,-999.0,93,0.00,,,0.00,open2300 v1.10,2013-01-28 23:31:00,
2013-01-28 18:41:00,51.3,49.2,29.96,NNE,22,0.0,-999.0,93,0.00,,,0.00,open2300 v1.10,2013-01-28 23:41:00,
2013-01-28 18:51:00,51.3,49.2,29.96,NNE,22,0.0,-999.0,93,0.00,,,0.00,open2300 v1.10,2013-01-28 23:51:00,
2013-01-28 19:01:00,51.3,49.2,29.96,NNE,22,0.0,-999.0,93,0.00,,,0.00,open2300 v1.10,2013-01-29 00:01:00,
2013-01-28 19:11:00,51.1,49.1,29.96,NNE,22,0.0,-999.0,93,0.00,,,0.00,open2300 v1.10,2013-01-29 00:11:00,
2013-01-28 19:21:00,50.9,48.9,29.96,NNE,22,0.0,-999.0,93,0.00,,,0.00,open2300 v1.10,2013-01-29 00:21:00,
2013-01-28 19:31:00,50.5,48.5,29.96,NNE,22,0.0,-999.0,93,0.00,,,0.00,open2300 v1.10,2013-01-29 00:31:00,
2013-01-28 19:41:00,50.2,47.9,29.96,NNE,22,0.0,-999.0,92,0.00,,,0.00,open2300 v1.10,2013-01-29 00:41:00,
2013-01-28 19:51:00,49.8,47.5,29.96,NNE,22,0.0,-999.0,92,0.00,,,0.00,open2300 v1.10,2013-01-29 00:51:00,
2013-01-28 20:01:00,49.6,47.3,29.96,NNE,22,0.0,-999.0,92,0.00,,,0.00,open2300 v1.10,2013-01-29 01:01:00,
2013-01-28 20:11:00,49.3,47.3,29.96,NNE,22,0.0,-999.0,93,0.00,,,0.00,open2300 v1.10,2013-01-29 01:11:00,
2013-01-28 20:21:00,49.3,47.3,29.96,NNE,22,0.0,-999.0,93,0.00,,,0.00,open2300 v1.10,2013-01-29 01:21:00,
2013-01-28 20:31:00,49.3,47.3,29.96,NNE,22,0.0,-999.0,93,0.00,,,0.00,open2300 v1.10,2013-01-29 01:31:00,
2013-01-28 20:41:00,49.3,47.3,29.96,NNE,22,0.0,-999.0,93,0.00,,,0.00,open2300 v1.10,2013-01-29 01:41:00,
2013-01-28 20:51:00,49.3,47.3,29.95,NNE,22,0.0,-999.0,93,0.00,,,0.00,open2300 v1.10,2013-01-29 01:51:00,
2013-01-28 21:01:00,49.3,47.3,29.96,NNE,22,0.0,-999.0,93,0.00,,,0.00,open2300 v1.10,2013-01-29 02:01:00,
2013-01-28 21:11:00,49.3,47.3,29.95,NNE,22,0.0,-999.0,93,0.00,,,0.00,open2300 v1.10,2013-01-29 02:11:00,
2013-01-28 21:21:00,49.3,47.3,29.96,NNE,22,0.0,-999.0,93,0.00,,,0.00,open2300 v1.10,2013-01-29 02:21:00,
2013-01-28 21:31:00,49.1,47.1,29.96,NNE,22,0.0,-999.0,93,0.00,,,0.00,open2300 v1.10,2013-01-29 02:31:00,
2013-01-28 21:41:00,48.7,46.8,29.97,NNE,22,0.0,-999.0,93,0.00,,,0.00,open2300 v1.10,2013-01-29 02:41:00,
2013-01-28 21:51:00,48.7,46.8,29.96,NNE,22,0.0,-999.0,93,0.00,,,0.00,open2300 v1.10,2013-01-29 02:51:00,
2013-01-28 22:01:00,48.7,46.8,29.96,NNE,22,0.0,-999.0,93,0.00,,,0.00,open2300 v1.10,2013-01-29 03:01:00,
2013-01-28 22:11:00,48.7,46.8,29.95,NNE,22,0.0,-999.0,93,0.00,,,0.00,open2300 v1.10,2013-01-29 03:11:00,
2013-01-28 22:21:00,48.6,46.6,29.95,NNE,22,0.0,-999.0,93,0.00,,,0.00,open2300 v1.10,2013-01-29 03:21:00,
2013-01-28 22:31:00,48.7,46.8,29.95,NNE,22,0.0,-999.0,93,0.00,,,0.00,open2300 v1.10,2013-01-29 03:31:00,
2013-01-28 22:41:00,48.7,46.8,29.94,NNE,22,0.0,-999.0,93,0.00,,,0.00,open2300 v1.10,2013-01-29 03:41:00,
2013-01-28 22:51:00,48.6,46.6,29.94,NNE,22,0.0,-999.0,93,0.00,,,0.00,open2300 v1.10,2013-01-29 03:51:00,
2013-01-28 23:01:00,48.6,46.6,29.93,NNE,22,0.0,-999.0,93,0.00,,,0.00,open2300 v1.10,2013-01-29 04:01:00,
2013-01-28 23:11:00,48.4,46.5,29.93,NNE,22,0.0,-999.0,93,0.00,,,0.00,open2300 v1.10,2013-01-29 04:11:00,
2013-01-28 23:21:00,48.7,46.8,29.93,NNE,22,0.0,-999.0,93,0.00,,,0.00,open2300 v1.10,2013-01-29 04:21:00,
2013-01-28 23:31:00,49.6,47.6,29.93,NNE,22,0.0,-999.0,93,0.00,,,0.00,open2300 v1.10,2013-01-29 04:31:00,
2013-01-28 23:41:00,50.2,48.2,29.92,NNE,22,0.0,-999.0,93,0.00,,,0.00,open2300 v1.10,2013-01-29 04:41:00,
2013-01-28 23:51:00,50.5,48.5,29.91,NNE,22,0.0,-999.0,93,0.00,,,0.00,open2300 v1.10,2013-01-29 04:51:00,